Naples, Italy

7:47 AM CEST on April 23, 2017 (GMT +0200)
Naples

Weather History for LIRN - August, 2012

Change the Weather History Date:

Tuesday, August 7, 2012

  Actual Average Record
Temperature  
Mean Temperature 86 °F -  
Max Temperature 96 °F 84 °F 100 °F (2015)
Min Temperature 77 °F 63 °F 60 °F (2006)
Cooling Degree Days 22    
Growing Degree Days 36 (Base 50)    
Moisture  
Dew Point 63 °F    
Average Humidity 45    
Maximum Humidity 83    
Minimum Humidity 25    
Precipitation  
Precipitation 0.00 in 0.07 in - ()
Sea Level Pressure  
Sea Level Pressure 30.03 in    
Wind  
Wind Speed 4 mph ()    
Max Wind Speed 10 mph    
Max Gust Speed -    
Visibility 6.1 miles    
Events      
Averages and records for this station are not official NWS values.
T = Trace of Precipitation, MM = Missing Value Source: Averaged Metar Reports

Daily Weather History Graph

Daily Weather History Graph

Search for Another Location

Airport or City:

Trip Planner

Search our weather history database for the weather conditions in past years. The results will help you decide how hot, cold, wet, or windy it might be!

Date:

Astronomy

Aug. 07, 2012 Rise Set
Actual Time 6:05 AM CEST 8:11 PM CEST
Civil Twilight 5:34 AM CEST 8:41 PM CEST
Nautical Twilight 4:57 AM CEST 9:18 PM CEST
Astronomical Twilight 4:17 AM CEST 9:58 PM CEST
Moon 10:39 PM CEST (8/7) 11:39 AM CEST (8/7)
Length of Visible Light 15h 06m
Length of Day
14h 06m
Waning Gibbous, 72% of the Moon is Illuminated
Aug 7
Waning Gibbous
Aug 9
Last Quarter
Aug 17
New
Aug 24
First Quarter
Aug 31
Full

Hourly Weather History & Observations

Time (CEST) Temp. Heat Index Dew Point Humidity Pressure Visibility Wind Dir Wind Speed Gust Speed Precip Events Conditions
12:20 AM 82.4 °F 82.9 °F 60.8 °F 48% 30.04 in - ENE 3.5 mph - N/A   Clear
12:50 AM 80.6 °F 81.5 °F 60.8 °F 51% 30.04 in - ENE 2.3 mph - N/A   Clear
1:20 AM 82.4 °F 82.9 °F 60.8 °F 48% 30.01 in - Variable 2.3 mph - N/A   Clear
1:50 AM 78.8 °F - 60.8 °F 54% 30.01 in - NW 2.3 mph - N/A   Clear
2:20 AM 78.8 °F - 62.6 °F 57% 30.01 in - North 2.3 mph - N/A   Clear
2:50 AM 78.8 °F - 62.6 °F 57% 30.04 in - NW 2.3 mph - N/A   Clear
3:20 AM 80.6 °F 81.8 °F 62.6 °F 54% 30.04 in - Variable 2.3 mph - N/A   Clear
3:50 AM 78.8 °F - 62.6 °F 57% 30.04 in - West 3.5 mph - N/A   Clear
4:20 AM 80.6 °F 82.7 °F 66.2 °F 61% 30.04 in - NW 6.9 mph - N/A   Clear
4:50 AM 78.8 °F - 73.4 °F 83% 30.04 in - NW 4.6 mph - N/A   Clear
5:20 AM 77.0 °F - 62.6 °F 61% 30.04 in - ENE 4.6 mph - N/A   Clear
5:50 AM 77.0 °F - 60.8 °F 57% 30.04 in - East 4.6 mph - N/A   Clear
6:20 AM 77.0 °F - 59.0 °F 54% 30.01 in 5.0 mi ENE 3.5 mph - N/A   Unknown
6:50 AM 77.0 °F - 59.0 °F 54% 30.04 in - Variable 2.3 mph - N/A   Clear
7:20 AM 78.8 °F - 64.4 °F 61% 30.04 in - Variable 2.3 mph - N/A   Clear
7:50 AM 80.6 °F 81.8 °F 62.6 °F 54% 30.04 in - NNW 4.6 mph - N/A   Clear
8:20 AM 84.2 °F 83.8 °F 59.0 °F 42% 30.04 in - NNE 4.6 mph - N/A   Clear
8:50 AM 84.2 °F 83.5 °F 57.2 °F 40% 30.04 in - NE 4.6 mph - N/A   Clear
9:20 AM 87.8 °F 86.5 °F 57.2 °F 35% 30.04 in - NNE 3.5 mph - N/A   Clear
9:50 AM 89.6 °F 88.1 °F 57.2 °F 33% 30.04 in - North 3.5 mph - N/A   Clear
10:20 AM 91.4 °F 89.4 °F 55.4 °F 29% 30.04 in - North 3.5 mph - N/A   Clear
10:50 AM 95.0 °F 92.7 °F 53.6 °F 25% 30.04 in - Variable 2.3 mph - N/A   Clear
11:20 AM 96.8 °F 95.1 °F 55.4 °F 25% 30.04 in - Variable 2.3 mph - N/A   Clear
11:50 AM 95.0 °F 97.0 °F 64.4 °F 36% 30.04 in - South 5.8 mph - N/A   Clear
12:20 PM 96.8 °F 97.1 °F 60.8 °F 30% 30.04 in - South 6.9 mph - N/A   Clear
12:50 PM 96.8 °F 98.0 °F 62.6 °F 32% 30.04 in - South 6.9 mph - N/A   Clear
1:20 PM 96.8 °F 97.1 °F 60.8 °F 30% 30.04 in 6.2 mi South 9.2 mph - N/A   Partly Cloudy
1:50 PM 95.0 °F 95.2 °F 60.8 °F 32% 30.04 in 6.2 mi South 10.4 mph - N/A   Partly Cloudy
2:20 PM 96.8 °F 99.0 °F 64.4 °F 34% 30.01 in 6.2 mi South 9.2 mph - N/A   Partly Cloudy
2:50 PM 93.2 °F 96.2 °F 66.2 °F 41% 30.04 in 6.2 mi South 8.1 mph - N/A   Partly Cloudy
3:20 PM 93.2 °F 97.7 °F 68.0 °F 44% 30.01 in 6.2 mi South 9.2 mph - N/A   Partly Cloudy
3:50 PM 93.2 °F 97.7 °F 68.0 °F 44% 30.01 in 6.2 mi South 6.9 mph - N/A   Partly Cloudy
4:20 PM 93.2 °F 98.8 °F 69.8 °F 46% 30.04 in - South 9.2 mph - N/A   Clear
4:50 PM 95.0 °F 99.5 °F 68.0 °F 41% 30.04 in - SSW 3.5 mph - N/A   Clear
5:20 PM 95.0 °F 97.0 °F 64.4 °F 36% 30.01 in - NNW 4.6 mph - N/A   Clear
5:50 PM 93.2 °F 97.7 °F 68.0 °F 44% 29.98 in 6.2 mi Variable 3.5 mph - N/A   Partly Cloudy
6:20 PM 93.2 °F 96.2 °F 66.2 °F 41% 30.01 in 6.2 mi Variable 2.3 mph - N/A   Partly Cloudy
6:50 PM 91.4 °F 94.0 °F 66.2 °F 43% 30.01 in 6.2 mi South 4.6 mph - N/A   Partly Cloudy
7:20 PM 89.6 °F 93.4 °F 68.0 °F 49% 30.01 in - Variable 1.2 mph - N/A   Clear
7:50 PM 89.6 °F 91.1 °F 64.4 °F 43% 30.01 in - WNW 8.1 mph - N/A   Clear
8:20 PM 87.8 °F 88.5 °F 62.6 °F 43% 30.01 in - WNW 5.8 mph - N/A   Clear
8:50 PM 87.8 °F 87.6 °F 60.8 °F 40% 30.04 in - Variable 2.3 mph - N/A   Clear
9:20 PM 87.8 °F 86.5 °F 57.2 °F 35% 30.04 in - West 5.8 mph - N/A   Clear
9:50 PM 86.0 °F 86.1 °F 60.8 °F 43% 30.04 in - Variable 2.3 mph - N/A   Clear
10:20 PM 84.2 °F 84.4 °F 60.8 °F 45% 30.04 in - WSW 2.3 mph - N/A   Clear
10:50 PM 84.2 °F 85.0 °F 62.6 °F 48% 30.01 in - Variable 2.3 mph - N/A   Clear
11:20 PM 84.2 °F 85.0 °F 62.6 °F 48% 30.01 in - SSW 5.8 mph - N/A   Clear
11:50 PM 82.4 °F 85.4 °F 68.0 °F 62% 30.01 in - South 4.6 mph - N/A   Clear